PRAETORIAN SDA_618

Last updated on Wed Sep 09 2026 00:03:45 GMT+0000 (Coordinated Universal Time)

1 65581U 25203S 26251.60542905 .00000154 00000+0 12750-3 0 9991 2 65581 81.3007 293.2229 0009136 334.0275 26.0422 13.84229231 50251
UTC large
Height (km)
Speed (km/s)
/
Latitude / Longitude
Inclination (degrees)
Orbital Period (minutes)
Azimuth
Elevation
Range (km)
Doppler Factor

Next 0 passes for location: London (51.5072 / 0.1276)

No passes found over London.
PRAETORIAN SDA_618